When you browse on this site, cookies collect data to enhance your experience and personalize the content and advertising you see.
Visit our Privacy Policy to learn more. By continuing to use the site, you agree to this use of cookies and data.
  • Em Portugal
  • Lista de países
  • Para 7 dias
  • Temperatura da água
  • Mapas de satélite
  • Mapa do tempo
  • Widgets de tempo
  • user-avatar
    Iniciar Sessão

    Previsão horária em Pleven

    Hoje, 22 Abril, Segunda-feira

    Tempo Temperatura Precipitação Vento Pressão Humidade
    00:00 +10°C° 0 mm 3 m/s 749 mmHg 59%
    01:00 +9°C° 0 mm 2 m/s 749 mmHg 60%
    02:00 +9°C° 0 mm 3 m/s 748 mmHg 57%
    03:00 +9°C° 0 mm 2 m/s 748 mmHg 58%
    04:00 +9°C° 0 mm 2 m/s 748 mmHg 60%
    05:00 +8°C° 0 mm 2 m/s 748 mmHg 61%
    06:00 +10°C° 0 mm 2 m/s 748 mmHg 59%
    07:00 +12°C° 0 mm 2 m/s 748 mmHg 58%
    08:00 +14°C° 0 mm 1 m/s 748 mmHg 56%
    09:00 +16°C° 0 mm 1 m/s 748 mmHg 52%
    10:00 +18°C° 0 mm 2 m/s 748 mmHg 48%
    11:00 +19°C° 0 mm 2 m/s 748 mmHg 44%
    12:00 +19°C° 0 mm 3 m/s 748 mmHg 44%
    13:00 +20°C° 0 mm 3 m/s 748 mmHg 44%
    14:00 +20°C° 0 mm 4 m/s 747 mmHg 44%
    15:00 +20°C° 0 mm 4 m/s 747 mmHg 46%
    16:00 +20°C° 0 mm 4 m/s 747 mmHg 49%
    17:00 +20°C° 0 mm 5 m/s 747 mmHg 51%
    18:00 +18°C° 0 mm 4 m/s 747 mmHg 56%
    19:00 +15°C° 0 mm 4 m/s 747 mmHg 61%
    20:00 +14°C° 0 mm 4 m/s 747 mmHg 67%
    21:00 +13°C° 0 mm 3 m/s 748 mmHg 70%
    22:00 +12°C° 0 mm 3 m/s 748 mmHg 73%
    23:00 +11°C° 0 mm 3 m/s 749 mmHg 77%

    Amanhã, 23 Abril, Terça-feira

    Tempo Temperatura Precipitação Vento Pressão Humidade
    00:00 +10°C° 0 mm 2 m/s 749 mmHg 79%
    01:00 +10°C° 0 mm 2 m/s 749 mmHg 81%
    02:00 +9°C° 0 mm 2 m/s 749 mmHg 83%
    03:00 +9°C° 0 mm 2 m/s 749 mmHg 81%
    04:00 +9°C° 0 mm 2 m/s 749 mmHg 79%
    05:00 +9°C° 0 mm 2 m/s 749 mmHg 77%
    06:00 +9°C° 0.1 mm 2 m/s 750 mmHg 76%
    07:00 +10°C° 0.1 mm 2 m/s 750 mmHg 76%
    08:00 +10°C° 0.1 mm 2 m/s 750 mmHg 75%
    09:00 +12°C° 0.2 mm 2 m/s 750 mmHg 74%
    10:00 +13°C° 0.2 mm 2 m/s 751 mmHg 72%
    11:00 +13°C° 0.2 mm 2 m/s 751 mmHg 70%
    12:00 +14°C° 0.1 mm 2 m/s 750 mmHg 68%
    13:00 +14°C° 0.1 mm 3 m/s 750 mmHg 65%
    14:00 +16°C° 0.1 mm 3 m/s 750 mmHg 63%
    15:00 +16°C° 0.1 mm 3 m/s 749 mmHg 64%
    16:00 +16°C° 0.1 mm 3 m/s 749 mmHg 65%
    17:00 +16°C° 0.1 mm 3 m/s 749 mmHg 66%
    18:00 +14°C° 0 mm 3 m/s 749 mmHg 69%
    19:00 +13°C° 0 mm 3 m/s 749 mmHg 73%
    20:00 +11°C° 0 mm 3 m/s 749 mmHg 77%
    21:00 +12°C° 0 mm 2 m/s 749 mmHg 77%
    22:00 +12°C° 0 mm 2 m/s 750 mmHg 76%
    23:00 +11°C° 0 mm 1 m/s 750 mmHg 76%

    Depois de amanhã, 24 Abril, Quarta-feira

    Tempo Temperatura Precipitação Vento Pressão Humidade
    00:00 +11°C° 0 mm 1 m/s 750 mmHg 77%
    01:00 +11°C° 0 mm 1 m/s 750 mmHg 79%
    02:00 +10°C° 0 mm 1 m/s 750 mmHg 80%
    03:00 +10°C° 0 mm 1 m/s 750 mmHg 82%
    04:00 +10°C° 0 mm 1 m/s 750 mmHg 83%
    05:00 +10°C° 0 mm 1 m/s 750 mmHg 85%
    06:00 +11°C° 0 mm 1 m/s 751 mmHg 80%
    07:00 +12°C° 0 mm 1 m/s 751 mmHg 75%
    08:00 +14°C° 0 mm 1 m/s 751 mmHg 70%
    09:00 +15°C° 0 mm 1 m/s 751 mmHg 67%
    10:00 +17°C° 0 mm 2 m/s 751 mmHg 63%
    11:00 +18°C° 0 mm 2 m/s 752 mmHg 60%
    12:00 +19°C° 0 mm 3 m/s 751 mmHg 59%
    13:00 +20°C° 0 mm 3 m/s 751 mmHg 58%
    14:00 +21°C° 0 mm 3 m/s 751 mmHg 57%
    15:00 +21°C° 0 mm 3 m/s 751 mmHg 59%
    16:00 +21°C° 0 mm 4 m/s 750 mmHg 60%
    17:00 +21°C° 0 mm 4 m/s 750 mmHg 62%
    18:00 +19°C° 0 mm 3 m/s 750 mmHg 70%
    19:00 +17°C° 0 mm 3 m/s 751 mmHg 78%
    20:00 +15°C° 0 mm 2 m/s 751 mmHg 86%
    21:00 +14°C° 0 mm 2 m/s 751 mmHg 88%
    22:00 +13°C° 0 mm 1 m/s 751 mmHg 91%
    23:00 +13°C° 0 mm 1 m/s 752 mmHg 93%

    25 Abril, Quinta-feira

    Tempo Temperatura Precipitação Vento Pressão Humidade
    00:00 +12°C° 0 mm 1 m/s 752 mmHg 93%
    01:00 +12°C° 0 mm 1 m/s 752 mmHg 94%
    02:00 +12°C° 0 mm 1 m/s 752 mmHg 94%
    03:00 +11°C° 0 mm 1 m/s 752 mmHg 94%
    04:00 +11°C° 0 mm 1 m/s 752 mmHg 95%
    05:00 +11°C° 0 mm 1 m/s 752 mmHg 95%
    06:00 +12°C° 0 mm 1 m/s 752 mmHg 91%
    07:00 +13°C° 0 mm 1 m/s 752 mmHg 88%
    08:00 +14°C° 0 mm 1 m/s 752 mmHg 84%
    09:00 +16°C° 0 mm 1 m/s 752 mmHg 79%
    10:00 +17°C° 0 mm 2 m/s 752 mmHg 75%
    11:00 +19°C° 0 mm 2 m/s 752 mmHg 71%
    12:00 +20°C° 0 mm 2 m/s 752 mmHg 69%
    13:00 +20°C° 0 mm 2 m/s 751 mmHg 68%
    14:00 +21°C° 0 mm 3 m/s 751 mmHg 66%
    15:00 +21°C° 0.1 mm 3 m/s 750 mmHg 66%
    16:00 +22°C° 0.1 mm 3 m/s 750 mmHg 66%
    17:00 +22°C° 0.1 mm 3 m/s 750 mmHg 66%
    18:00 +20°C° 0 mm 2 m/s 750 mmHg 72%
    19:00 +18°C° 0 mm 2 m/s 750 mmHg 78%
    20:00 +17°C° 0 mm 2 m/s 750 mmHg 84%
    21:00 +16°C° 0 mm 1 m/s 750 mmHg 86%
    22:00 +16°C° 0 mm 1 m/s 750 mmHg 87%
    23:00 +15°C° 0 mm 1 m/s 751 mmHg 89%

    26 Abril, Sexta-feira

    Tempo Temperatura Precipitação Vento Pressão Humidade
    00:00 +14°C° 0 mm 1 m/s 750 mmHg 89%
    01:00 +14°C° 0 mm 1 m/s 750 mmHg 89%
    02:00 +14°C° 0 mm 1 m/s 750 mmHg 90%
    03:00 +13°C° 0 mm 1 m/s 750 mmHg 90%
    04:00 +13°C° 0 mm 1 m/s 750 mmHg 91%
    05:00 +13°C° 0 mm 1 m/s 750 mmHg 91%
    06:00 +14°C° 0 mm 1 m/s 750 mmHg 87%
    07:00 +15°C° 0 mm 1 m/s 750 mmHg 82%
    08:00 +18°C° 0 mm 1 m/s 750 mmHg 77%
    09:00 +19°C° 0 mm 1 m/s 750 mmHg 73%
    10:00 +20°C° 0 mm 2 m/s 750 mmHg 68%
    11:00 +21°C° 0 mm 2 m/s 750 mmHg 64%
    12:00 +23°C° 0 mm 2 m/s 749 mmHg 61%
    13:00 +24°C° 0 mm 2 m/s 749 mmHg 59%
    14:00 +25°C° 0 mm 2 m/s 748 mmHg 56%
    15:00 +25°C° 0 mm 2 m/s 748 mmHg 57%
    16:00 +25°C° 0 mm 2 m/s 748 mmHg 57%
    17:00 +25°C° 0 mm 2 m/s 747 mmHg 57%
    18:00 +23°C° 0 mm 2 m/s 747 mmHg 64%
    19:00 +20°C° 0 mm 2 m/s 747 mmHg 70%
    20:00 +18°C° 0 mm 2 m/s 748 mmHg 77%
    21:00 +17°C° 0 mm 2 m/s 748 mmHg 80%
    22:00 +16°C° 0 mm 2 m/s 747 mmHg 83%
    23:00 +16°C° 0 mm 2 m/s 747 mmHg 86%

    27 Abril, Sábado

    Tempo Temperatura Precipitação Vento Pressão Humidade
    00:00 +15°C° 0 mm 2 m/s 747 mmHg 86%
    01:00 +15°C° 0 mm 2 m/s 747 mmHg 86%
    02:00 +14°C° 0 mm 2 m/s 746 mmHg 86%
    03:00 +14°C° 0 mm 1 m/s 746 mmHg 85%
    04:00 +14°C° 0 mm 1 m/s 746 mmHg 85%
    05:00 +13°C° 0 mm 1 m/s 746 mmHg 84%
    06:00 +15°C° 0 mm 1 m/s 746 mmHg 80%
    07:00 +16°C° 0 mm 1 m/s 746 mmHg 75%
    08:00 +19°C° 0 mm 1 m/s 746 mmHg 70%
    09:00 +20°C° 0 mm 1 m/s 746 mmHg 67%
    10:00 +21°C° 0 mm 2 m/s 746 mmHg 63%
    11:00 +23°C° 0 mm 2 m/s 746 mmHg 59%
    12:00 +24°C° 0.1 mm 2 m/s 745 mmHg 57%
    13:00 +25°C° 0.1 mm 3 m/s 745 mmHg 56%
    14:00 +25°C° 0.1 mm 3 m/s 744 mmHg 55%
    15:00 +25°C° 0.1 mm 3 m/s 744 mmHg 57%
    16:00 +25°C° 0.1 mm 3 m/s 743 mmHg 60%
    17:00 +24°C° 0.1 mm 2 m/s 743 mmHg 62%
    18:00 +23°C° 0 mm 2 m/s 743 mmHg 67%
    19:00 +20°C° 0 mm 2 m/s 743 mmHg 71%
    20:00 +18°C° 0 mm 2 m/s 743 mmHg 76%
    21:00 +18°C° 0 mm 2 m/s 744 mmHg 77%
    22:00 +18°C° 0 mm 1 m/s 744 mmHg 79%
    23:00 +18°C° 0 mm 1 m/s 744 mmHg 81%
    Mostrar mais